Weather History for KEST - March, 2012

Change the Weather History Date:

Saturday, March 3, 2012

  Actual Average Record
Temperature  
Mean Temperature 26 °F 27 °F  
Max Temperature 30 °F 35 °F 69 °F (1974)
Min Temperature 21 °F 18 °F -11 °F (2014)
Degree Days  
Heating Degree Days 39 38  
Month to date heating degree days 106 116  
Since 1 July heating degree days 5199 6031  
Cooling Degree Days 0 0  
Month to date cooling degree days 0 0  
Year to date cooling degree days 0 0  
Moisture  
Dew Point 18 °F    
Average Humidity 75    
Maximum Humidity 81    
Minimum Humidity 68    
Precipitation  
Precipitation T in 0.02 in 0.90 in (1951)
Month to date precipitation T 0.07  
Year to date precipitation 1.92  
Sea Level Pressure  
Sea Level Pressure 29.86 in    
Wind  
Wind Speed 21 mph (NW)    
Max Wind Speed 35 mph    
Max Gust Speed 43 mph    
Visibility 10 miles    
Events Snow    
T = Trace of Precipitation, MM = Missing Value Source: NWS Daily Summary

Daily Weather History Graph

Daily Weather History Graph

Search for Another Location

Airport or City:

Trip Planner

Search our weather history database for the weather conditions in past years. The results will help you decide how hot, cold, wet, or windy it might be!

Date:

Astronomy

Mar. 03, 2012 Rise Set
Actual Time 6:51 AM CST 6:11 PM CST
Civil Twilight 6:22 AM CST 6:39 PM CST
Nautical Twilight 5:49 AM CST 7:12 PM CST
Astronomical Twilight 5:16 AM CST 7:46 PM CST
Moon 1:14 PM CST (3/3) 3:36 AM CST (3/3)
Length of Visible Light 12h 17m
Length of Day
11h 20m
Waxing Gibbous, 75% of the Moon is Illuminated
Mar 3
Waxing Gibbous
Mar 8
Full
Mar 14
Last Quarter
Mar 22
New
Mar 30
First Quarter

Hourly Weather History & Observations

Time (CST) Temp. Windchill Dew Point Humidity Pressure Visibility Wind Dir Wind Speed Gust Speed Precip Events Conditions
12:52 AM 27.0 °F 12.8 °F 19.9 °F 75% 29.75 in 10.0 mi WNW 21.9 mph 35.7 mph N/A   Overcast
1:03 AM 26.6 °F 10.3 °F 19.4 °F 74% 29.72 in 10.0 mi NW 29.9 mph 38.0 mph N/A   Overcast
1:52 AM 26.1 °F 12.0 °F 19.0 °F 75% 29.76 in 9.0 mi WNW 20.7 mph 25.3 mph 0.00 in Snow Light Snow
2:52 AM 25.0 °F 8.9 °F 17.1 °F 72% 29.76 in 10.0 mi NW 26.5 mph 34.5 mph 0.00 in   Overcast
3:52 AM 24.1 °F 6.9 °F 17.1 °F 75% 29.77 in 10.0 mi NW 29.9 mph 36.8 mph 0.00 in   Overcast
4:52 AM 24.1 °F 7.1 °F 17.1 °F 75% 29.78 in 10.0 mi WNW 28.8 mph 40.3 mph N/A   Overcast
5:52 AM 24.1 °F 7.4 °F 18.0 °F 77% 29.80 in 10.0 mi WNW 27.6 mph 35.7 mph N/A   Overcast
6:52 AM 23.0 °F 6.0 °F 17.1 °F 78% 29.82 in 10.0 mi NW 27.6 mph 32.2 mph N/A   Overcast
7:52 AM 23.0 °F 6.9 °F 16.0 °F 74% 29.85 in 10.0 mi NW 24.2 mph 33.4 mph N/A   Overcast
8:52 AM 21.9 °F 5.1 °F 16.0 °F 78% 29.87 in 9.0 mi WNW 25.3 mph 33.4 mph N/A   Overcast
9:52 AM 24.1 °F 7.7 °F 16.0 °F 71% 29.88 in 10.0 mi NW 26.5 mph 32.2 mph N/A   Overcast
10:52 AM 25.0 °F 10.2 °F 18.0 °F 75% 29.88 in 10.0 mi NW 21.9 mph 31.1 mph N/A   Scattered Clouds
11:04 AM 24.8 °F 9.3 °F 17.6 °F 74% 29.83 in 10.0 mi NW 24.2 mph - N/A   Mostly Cloudy
11:52 AM 27.0 °F 12.5 °F 19.9 °F 75% 29.89 in 10.0 mi WNW 23.0 mph 29.9 mph N/A   Mostly Cloudy
12:17 PM 26.6 °F 11.1 °F 19.4 °F 74% 29.84 in 10.0 mi NW 26.5 mph 34.5 mph N/A   Scattered Clouds
12:52 PM 27.0 °F 12.5 °F 19.9 °F 75% 29.90 in 10.0 mi WNW 23.0 mph 29.9 mph N/A   Scattered Clouds
1:00 PM 28.4 °F 13.8 °F 19.4 °F 69% 29.85 in 10.0 mi WNW 25.3 mph 32.2 mph N/A   Mostly Cloudy
1:31 PM 28.4 °F 15.1 °F 19.4 °F 69% 29.84 in 10.0 mi WNW 20.7 mph 31.1 mph N/A   Scattered Clouds
1:52 PM 28.9 °F 15.4 °F 19.9 °F 69% 29.89 in 10.0 mi WNW 21.9 mph 31.1 mph N/A   Scattered Clouds
2:24 PM 28.4 °F 15.4 °F 21.2 °F 74% 29.84 in 10.0 mi WNW 19.6 mph - N/A   Mostly Cloudy
2:49 PM 28.4 °F 14.7 °F 19.4 °F 69% 29.85 in 10.0 mi WNW 21.9 mph - N/A   Scattered Clouds
2:52 PM 28.0 °F 14.9 °F 19.0 °F 69% 29.90 in 10.0 mi WNW 19.6 mph - N/A   Scattered Clouds
2:59 PM 28.4 °F 15.1 °F 19.4 °F 69% 29.85 in 10.0 mi WNW 20.7 mph 27.6 mph N/A   Mostly Cloudy
3:36 PM 26.6 °F 12.7 °F 19.4 °F 74% 29.86 in 10.0 mi WNW 20.7 mph 27.6 mph N/A   Scattered Clouds
3:52 PM 27.0 °F 13.2 °F 19.0 °F 72% 29.91 in 10.0 mi NW 20.7 mph 25.3 mph N/A   Partly Cloudy
4:32 PM 26.6 °F 13.4 °F 19.4 °F 74% 29.87 in 10.0 mi NW 18.4 mph 25.3 mph N/A   Mostly Cloudy
4:52 PM 27.0 °F 12.8 °F 19.0 °F 72% 29.93 in 10.0 mi WNW 21.9 mph - N/A   Mostly Cloudy
5:05 PM 26.6 °F 14.3 °F 19.4 °F 74% 29.87 in 10.0 mi NW 16.1 mph - N/A   Mostly Cloudy
5:12 PM 26.6 °F 13.1 °F 19.4 °F 74% 29.87 in 10.0 mi WNW 19.6 mph 24.2 mph N/A   Mostly Cloudy
5:52 PM 26.1 °F 13.1 °F 19.0 °F 75% 29.94 in 10.0 mi WNW 17.3 mph - N/A   Overcast
6:52 PM 25.0 °F 13.1 °F 17.1 °F 72% 29.95 in 10.0 mi NW 13.8 mph - N/A   Mostly Cloudy
7:44 PM 24.8 °F 13.4 °F 15.8 °F 69% 29.88 in 10.0 mi NW 12.7 mph - N/A   Scattered Clouds
7:52 PM 24.1 °F 10.6 °F 16.0 °F 71% 29.94 in 10.0 mi NW 17.3 mph - N/A   Mostly Cloudy
8:52 PM 23.0 °F 11.1 °F 16.0 °F 74% 29.94 in 10.0 mi WNW 12.7 mph - N/A   Overcast
9:52 PM 21.9 °F 10.4 °F 16.0 °F 78% 29.94 in 10.0 mi NW 11.5 mph - N/A   Overcast
10:52 PM 21.9 °F 9.8 °F 15.1 °F 75% 29.94 in 10.0 mi NW 12.7 mph - N/A   Overcast
11:52 PM 21.0 °F 16.2 °F 16.0 °F 81% 29.92 in 10.0 mi NNW 3.5 mph - N/A   Overcast